Regional Weather Roundup
Issued by NWS Northern Indiana

Home | Current Version | Previous Version | Graphics & Text | Print | Product List | Glossary On
Versions: 1 2 3 4 5 6 7 8 9 10 11 12 13 14 15 16 17 18 19 20 21 22 23 24 25 26 27 28 29 30 31 32 33 34 35 36 37 38 39 40 41 42 43 44 45 46 47 48 49 50
000
ASUS43 KIWX 020800
RWRIWX

KIWX WEATHER ROUNDUP
NATIONAL WEATHER SERVICE NORTHERN INDIANA
400 AM EDT THU JUL 02 2015

NOTE: "FAIR" INDICATES FEW OR NO CLOUDS BELOW 12,000 FEET WITH NO
SIGNIFICANT WEATHER AND/OR OBSTRUCTIONS TO VISIBILITY.

* THESE STATIONS ARE NOT UNDER NWS QUALITY CONTROL. THEY ALSO MAY NOT
  REPORT WEATHER SUCH AS PRECIPITATION OR FOG.

INZ001>027-020900-
NORTHERN INDIANA

CITY           SKY/WX    TMP DP  RH WIND       PRES   REMARKS
SOUTH BEND     MOCLDY    56  53  90 N5        29.98S
GOSHEN         CLOUDY    56  53  90 N6        29.96F
ANGOLA*          N/A     55  43  62 N3        29.96F
FORT WAYNE     CLOUDY    59  55  87 N5        29.95F
PERU/GRISSOM   CLOUDY    58  54  86 NE8       29.94F

$$
INZ028>050-020900-
CENTRAL INDIANA

CITY           SKY/WX    TMP DP  RH WIND       PRES   REMARKS
LAFAYETTE      CLOUDY    58  53  84 NE6       29.93F
KOKOMO*        CLOUDY    59  54  82 NE6       29.95S
MUNCIE*        MOCLDY    62  56  80 NE5       29.93F
INDIANAPOLIS   CLOUDY    63  54  72 NE10      29.88F

$$
MIZ043>046-050>051-056>058-064>065-071>073-077>080-020900-
SOUTHWEST LOWER MICHIGAN

CITY           SKY/WX    TMP DP  RH WIND       PRES   REMARKS
BATTLE CREEK   CLEAR     55  52  89 NE6       29.98S
BENTON HARBOR  PTCLDY    50  48  93 CALM      29.98S FOG
COLDWATER*     CLEAR     53  52  99 CALM      29.97S FOG
HILLSDALE*     CLEAR     54  54 100 CALM      29.97F FOG
HOLLAND        CLEAR     54  51  90 CALM      30.00R
GRAND RAPIDS   CLEAR     54  52  93 CALM      29.99S
KALAMAZOO      CLEAR     54  51  90 N5        29.98S
STURGIS*       PTCLDY    54  54 100 N5        29.96F
THREE RIVERS*  FAIR      53  51  94 CALM      29.97F

$$
OHZ001>008-015>018-024>025-020900-
NORTHWEST OHIO

CITY           SKY/WX    TMP DP  RH WIND       PRES   REMARKS
DEFIANCE       MOCLDY    61  56  83 NE5       29.95S
FINDLAY        MOCLDY    64  59  83 NE6       29.93S
TOLEDO EXPRESS CLOUDY    60  56  86 CALM      29.95S
TOLEDO METCALF PTCLDY    64  59  83 NE5       29.96S
LIMA           MOCLDY    61  58  90 NE3       29.93F

$$
AND FOR LAKE MICHIGAN COASTAL AND OPEN LAKE BUOY OBSERVATIONS

STATION/POSITION TEMP    WIND        PRES    VSBY  WAVE
                 AIR SEA DIR/SP/G                  HT/PER
                 (F)     (DEG/KT/KT) (MB)    (MI)  (FT/S)
CALUMET HARBOR    55     360/  6/  9   N/A
MICHIGAN CITY     59      30/ 11/ 12   N/A
BURNS HARBOR      58     350/  9/ 12 1015.9F
SAINT JOSEPH      55      20/  2/  6   N/A
4 MI NW BRIDGMAN  58 63                N/A           3/ 5
MICHIGAN CITY     60 64   60/ 10/ 14   N/A           3/ 5

$$
&&



USA.gov is the U.S. government's official web portal to all federal, state and local government web resources and services.